This demonstration page uses our WeatherBlox Daily Observations layout. Learn more.

Left ArrowRight Arrow

Hourly Observations for August 12, 2015

Temp ( °F °C ) Dew Point ( °F °C ) Humidity (%) Winds ( mph kmh ) Pressure ( in mb ) Visibility ( mi km ) Precip ( " mm )
12:15 am 00:15 Clear 67 19.5 62 16.5 83 83 SSE 7 11 30.15 1021 10 16 N/A
12:35 am 00:35 Clear 66 19.1 62 16.5 85 85 SSE 5 7 30.15 1021 10 16 N/A
12:55 am 00:55 Clear 66 19 61 16.3 84 84 SE 5 7 30.15 1021 10 16 N/A
1:15 am 01:15 Clear 66 18.9 61 16.1 84 84 SE 5 7 30.15 1021 10 16 N/A
1:35 am 01:35 Clear 67 19.5 61 16 80 80 SE 7 11 30.15 1021 10 16 N/A
1:55 am 01:55 Clear 67 19.2 60 15.7 80 80 SSE 7 11 30.15 1021 10 16 N/A
2:15 am 02:15 Clear 66 18.7 60 15.7 83 83 SE 6 9 30.15 1021 10 16 N/A
2:35 am 02:35 Clear 66 19.1 60 15.6 80 80 SE 6 9 30.15 1021 10 16 N/A
2:55 am 02:55 Clear 65 18.6 60 15.6 83 83 SE 6 9 30.15 1021 10 16 N/A
3:15 am 03:15 Clear 65 18.1 60 15.6 85 85 SSE 5 7 30.18 1022 10 16 N/A
3:35 am 03:35 Clear 64 17.9 60 15.6 87 87 SSE 6 9 30.18 1022 10 16 N/A
3:55 am 03:55 Clear 64 18 60 15.6 86 86 SSE 5 7 30.18 1022 10 16 N/A
4:15 am 04:15 Clear 64 18 60 15.5 85 85 SSE 5 7 30.18 1022 10 16 N/A
4:35 am 04:35 Clear 64 18 60 15.6 86 86 S 6 9 30.18 1022 10 16 N/A
4:55 am 04:55 Clear 64 17.7 60 15.5 87 87 SSE 5 7 30.18 1022 10 16 N/A
5:15 am 05:15 Clear 64 17.7 60 15.5 87 87 SSE 5 7 30.18 1022 10 16 N/A
5:35 am 05:35 Clear 64 17.7 60 15.3 86 86 SE 5 7 30.18 1022 10 16 N/A
5:55 am 05:55 Clear 64 17.9 60 15.3 85 85 SSE 3 6 30.18 1022 10 16 N/A
6:15 am 06:15 Clear 64 17.9 59 15.1 84 84 Calm 30.18 1022 10 16 N/A
6:35 am 06:35 Clear 64 17.5 59 14.8 84 84 S 5 7 30.18 1022 10 16 N/A
6:55 am 06:55 Sunny 62 16.8 59 14.8 88 88 S 5 7 30.18 1022 10 16 N/A
7:15 am 07:15 Sunny 63 17.1 59 15.1 88 88 S 5 7 30.18 1022 10 16 N/A
7:35 am 07:35 Sunny 64 17.9 60 15.5 86 86 SSE 3 6 30.18 1022 10 16 N/A
7:55 am 07:55 Sunny 66 18.7 60 15.8 83 83 SSE 5 7 30.15 1021 10 16 N/A
8:15 am 08:15 Sunny 67 19.5 61 16.2 81 81 S 6 9 30.15 1021 10 16 N/A
8:35 am 08:35 Sunny 69 20.6 62 16.5 77 77 S 8 13 30.15 1021 10 16 N/A
8:55 am 08:55 Sunny 71 21.5 62 16.5 73 73 S 7 11 30.15 1021 10 16 N/A
9:15 am 09:15 Sunny 72 22.4 62 16.7 70 70 S 9 15 30.15 1021 10 16 N/A
9:35 am 09:35 Sunny 73 22.9 62 16.5 67 67 S 14 22 30.12 1020 10 16 N/A
9:55 am 09:55 Sunny 74 23.5 62 16.6 65 65 S 17 28 30.12 1020 10 16 N/A
10:15 am 10:15 Sunny 75 23.9 62 16.6 64 64 S 15 24 30.12 1020 10 16 N/A
10:35 am 10:35 Sunny 76 24.6 63 17.2 64 64 S 15 24 30.12 1020 10 16 N/A
10:55 am 10:55 Sunny 77 25.1 63 17.4 62 62 S 14 22 30.12 1020 10 16 0.01 0.25
11:15 am 11:15 Partly Cloudy 77 25.2 63 17.4 62 62 S 15 24 30.12 1020 10 16 N/A
11:35 am 11:35 Partly Cloudy 80 26.6 64 18 59 59 S 16 26 30.09 1019 10 16 N/A
11:55 am 11:55 Mostly Cloudy 79 26.2 64 17.8 60 60 S 13 20 30.09 1019 10 16 N/A
12:15 pm 12:15 Cloudy 79 26.3 64 17.6 59 59 S 15 24 30.09 1019 10 16 N/A
12:35 pm 12:35 Cloudy 80 26.7 64 17.7 58 58 S 15 24 30.09 1019 10 16 N/A
12:55 pm 12:55 undefined 81 27 63 17.3 55 55 undefined N/A 30.06 1018 N/A 0.00 0.00
1:15 pm 13:15 Partly Cloudy 82 27.6 64 17.7 55 55 S 15 24 30.06 1018 10 16 N/A
1:35 pm 13:35 Hazy 82 27.6 63 17.2 53 53 S 15 24 30.06 1018 2 3 N/A
1:55 pm 13:55 Sunny 82 27.8 64 17.5 54 54 S 17 28 30.06 1018 10 16 N/A
2:15 pm 14:15 Sunny 83 28.1 65 18.1 55 55 S 15 24 30.06 1018 10 16 N/A
2:35 pm 14:35 Sunny 83 28.3 64 18 54 54 S 13 20 30.03 1017 10 16 N/A
2:55 pm 14:55 Sunny 83 28.5 65 18.3 54 54 S 16 26 30.00 1016 10 16 N/A
3:15 pm 15:15 Sunny 84 28.8 66 18.7 54 54 SSE 15 24 30.00 1016 10 16 N/A
3:35 pm 15:35 Sunny 84 28.9 66 18.8 54 54 S 13 20 30.00 1016 10 16 N/A
3:55 pm 15:55 Sunny 84 29 67 19.2 55 55 SSE 9 15 30.00 1016 10 16 N/A
4:15 pm 16:15 Sunny 84 29 66 18.7 54 54 SE 12 19 30.00 1016 10 16 N/A
4:35 pm 16:35 Sunny 84 29 67 19.2 55 55 S 13 20 29.97 1015 10 16 N/A
4:55 pm 16:55 Sunny 84 29.1 67 19.3 56 56 S 13 20 29.97 1015 10 16 N/A
5:15 pm 17:15 Sunny 84 29.1 67 19.2 55 55 SSE 13 20 29.97 1015 10 16 N/A
5:35 pm 17:35 Sunny 84 29.1 67 19.4 56 56 SSE 15 24 29.97 1015 10 16 N/A
5:55 pm 17:55 Sunny 84 29 67 19.4 56 56 SSE 12 19 29.97 1015 10 16 N/A
6:15 pm 18:15 Sunny 84 29 67 19.5 57 57 S 12 19 29.94 1014 10 16 N/A
6:35 pm 18:35 Sunny 83 28.6 67 19.6 58 58 SSE 10 17 29.94 1014 10 16 N/A
6:55 pm 18:55 Sunny 83 28.3 68 20.1 61 61 SSE 10 17 29.94 1014 10 16 N/A
7:15 pm 19:15 Sunny 82 28 67 19.2 59 59 SSE 12 19 29.94 1014 10 16 N/A
7:35 pm 19:35 Sunny 81 27.3 67 19.3 62 62 SSE 9 15 29.97 1015 10 16 N/A
7:55 pm 19:55 Sunny 80 26.6 67 19.7 66 66 SSE 7 11 29.97 1015 10 16 N/A
8:15 pm 20:15 Sunny 78 25.6 68 20.1 72 72 S 5 7 29.97 1015 10 16 N/A
8:35 pm 20:35 Sunny 76 24.5 68 20.1 77 77 S 5 7 29.97 1015 10 16 N/A
8:55 pm 20:55 Clear 74 23.6 68 20 80 80 S 6 9 30.00 1016 10 16 N/A
9:15 pm 21:15 Clear 74 23.2 68 20 82 82 S 5 7 30.00 1016 10 16 N/A
9:35 pm 21:35 Clear 73 22.6 68 19.9 85 85 S 5 7 30.00 1016 10 16 N/A
9:55 pm 21:55 Clear 72 22.3 68 19.8 86 86 S 5 7 30.03 1017 10 16 N/A
10:15 pm 22:15 Clear 72 22 68 19.9 88 88 S 5 7 30.03 1017 7 11 N/A
10:35 pm 22:35 Clear 71 21.7 68 19.9 90 90 S 3 6 30.03 1017 10 16 N/A
10:55 pm 22:55 Clear 71 21.6 68 19.8 90 90 S 3 6 30.03 1017 10 16 N/A
11:15 pm 23:15 Clear 71 21.6 68 19.8 90 90 S 3 6 30.03 1017 10 16 N/A
11:35 pm 23:35 Clear 71 21.5 67 19.5 88 88 S 5 7 30.03 1017 10 16 N/A
11:55 pm 23:55 Clear 70 21 67 19.2 90 90 S 6 9 30.06 1018 10 16 N/A

Powered by AerisWeather